| time (UTC) | temp F | wind direction | speed MPH | gust MPH | rain 1hr in | rain 24hr in | rain mn in | humidity % | barometer mb |
| 20260503005058 | 49 | 0.0 | 0.0 | 0.00 | 0.07 | 0.07 | 84 | 1010.9 | |
| 20260503004018 | 50 | 0.0 | 0.0 | 0.00 | 0.07 | 0.07 | 84 | 1010.8 | |
| 20260503003018 | 50 | 0.0 | 0.0 | 0.00 | 0.07 | 0.07 | 84 | 1010.9 | |
| 20260503002018 | 50 | 0.0 | 0.0 | 0.00 | 0.07 | 0.07 | 83 | 1010.8 | |
| 20260503001018 | 51 | 0.0 | 0.0 | 0.00 | 0.07 | 0.07 | 82 | 1010.9 | |
| 20260503000018 | 51 | 0.0 | 0.0 | 0.00 | 0.07 | 0.07 | 82 | 1010.7 | |
| 20260502235018 | 51 | 0.0 | 0.0 | 0.00 | 0.07 | 0.07 | 82 | 1010.6 | |
| 20260502234018 | 51 | 0.0 | 0.0 | 0.00 | 0.07 | 0.07 | 82 | 1010.5 | |
| 20260502233018 | 52 | 0.0 | 0.0 | 0.00 | 0.07 | 0.07 | 82 | 1010.6 | |
| 20260502232018 | 52 | 0.0 | 0.0 | 0.00 | 0.07 | 0.07 | 82 | 1010.7 | |
| 20260502231018 | 52 | 0.0 | 2.0 | 0.00 | 0.07 | 0.07 | 82 | 1010.6 | |
| 20260502230018 | 52 | 0.0 | 0.0 | 0.00 | 0.07 | 0.07 | 82 | 1010.6 | |
| 20260502225018 | 52 | 0.0 | 1.0 | 0.00 | 0.07 | 0.07 | 82 | 1010.6 | |
| 20260502224018 | 51 | 0.0 | 1.0 | 0.00 | 0.07 | 0.07 | 82 | 1010.5 | |
| 20260502223018 | 51 | 0.0 | 2.0 | 0.00 | 0.07 | 0.07 | 82 | 1010.5 | |
| 20260502222018 | 51 | 0.0 | 2.0 | 0.00 | 0.07 | 0.07 | 82 | 1010.6 | |
| 20260502221017 | 51 | 135 | 1.0 | 2.0 | 0.00 | 0.07 | 0.07 | 82 | 1010.5 |
| 20260502220018 | 51 | 0.0 | 1.0 | 0.00 | 0.07 | 0.07 | 82 | 1010.6 | |
| 20260502215018 | 51 | 0.0 | 2.0 | 0.00 | 0.07 | 0.07 | 82 | 1010.6 | |
| 20260502214020 | 51 | 0.0 | 2.0 | 0.00 | 0.07 | 0.07 | 81 | 1010.8 | |
| 20260502213019 | 51 | 0.0 | 2.0 | 0.00 | 0.07 | 0.07 | 81 | 1010.7 | |
| 20260502212018 | 51 | 225 | 1.0 | 3.0 | 0.00 | 0.07 | 0.07 | 80 | 1010.7 |
| 20260502211019 | 52 | 315 | 1.0 | 3.0 | 0.00 | 0.07 | 0.07 | 79 | 1010.8 |
| 20260502210020 | 52 | 180 | 1.0 | 3.0 | 0.00 | 0.07 | 0.07 | 78 | 1010.7 |
| 20260502205019 | 53 | 315 | 2.0 | 6.0 | 0.00 | 0.07 | 0.07 | 76 | 1010.9 |
| 20260502204040 | 53 | 0 | 1.0 | 3.0 | 0.00 | 0.07 | 0.07 | 75 | 1010.8 |
| 20260502203020 | 54 | 315 | 2.0 | 4.0 | 0.00 | 0.07 | 0.07 | 72 | 1010.8 |
| 20260502202019 | 55 | 293 | 3.0 | 8.0 | 0.00 | 0.07 | 0.07 | 70 | 1010.8 |
| 20260502201019 | 56 | 293 | 2.0 | 4.0 | 0.00 | 0.07 | 0.07 | 68 | 1010.6 |
| 20260502200019 | 56 | 68 | 2.0 | 4.0 | 0.00 | 0.07 | 0.07 | 66 | 1010.5 |
| 20260502195019 | 57 | 23 | 2.0 | 7.0 | 0.00 | 0.07 | 0.07 | 66 | 1010.5 |
| 20260502194039 | 57 | 0 | 2.0 | 5.0 | 0.00 | 0.07 | 0.07 | 65 | 1010.6 |
| 20260502193019 | 57 | 293 | 2.0 | 8.0 | 0.00 | 0.07 | 0.07 | 66 | 1010.7 |
| 20260502192019 | 57 | 315 | 2.0 | 6.0 | 0.00 | 0.07 | 0.07 | 65 | 1010.9 |
| 20260502191019 | 57 | 315 | 3.0 | 7.0 | 0.00 | 0.07 | 0.07 | 65 | 1010.9 |
| 20260502190020 | 57 | 68 | 3.0 | 8.0 | 0.00 | 0.07 | 0.07 | 66 | 1010.9 |
| 20260502185019 | 57 | 45 | 2.0 | 6.0 | 0.00 | 0.07 | 0.07 | 65 | 1010.9 |
| 20260502184019 | 57 | 90 | 3.0 | 7.0 | 0.00 | 0.07 | 0.07 | 66 | 1010.9 |
| 20260502183019 | 58 | 45 | 2.0 | 8.0 | 0.00 | 0.07 | 0.07 | 64 | 1011.1 |
| 20260502182019 | 59 | 68 | 2.0 | 6.0 | 0.00 | 0.07 | 0.07 | 65 | 1010.9 |
| 20260502181019 | 59 | 225 | 3.0 | 9.0 | 0.00 | 0.07 | 0.07 | 61 | 1011.1 |
| 20260502164019 | 55 | 315 | 2.0 | 9.0 | 0.00 | 0.07 | 0.07 | 80 | 1011.7 |
| 20260502163019 | 54 | 270 | 2.0 | 5.0 | 0.00 | 0.07 | 0.07 | 83 | 1011.8 |
| 20260502162019 | 54 | 293 | 1.0 | 3.0 | 0.00 | 0.07 | 0.07 | 85 | 1011.9 |
| 20260502161019 | 52 | 338 | 1.0 | 3.0 | 0.00 | 0.07 | 0.07 | 89 | 1012.3 |
| 20260502152019 | 50 | 90 | 1.0 | 5.0 | 0.00 | 0.07 | 0.07 | 90 | 1012.5 |
| 20260502151019 | 50 | 90 | 2.0 | 4.0 | 0.00 | 0.07 | 0.07 | 90 | 1012.3 |
| 20260502123018 | 47 | 0.0 | 1.0 | 0.01 | 0.05 | 0.05 | 90 | 1013.2 | |
| 20260502122018 | 47 | 0.0 | 2.0 | 0.01 | 0.04 | 0.04 | 90 | 1013.2 | |
| 20260502121018 | 47 | 45 | 1.0 | 4.0 | 0.02 | 0.04 | 0.04 | 90 | 1013.1 |
| 20260502115018 | 48 | 0.0 | 0.0 | 0.03 | 0.04 | 0.04 | 91 | 1012.8 | |
| 20260502114018 | 48 | 0.0 | 2.0 | 0.03 | 0.04 | 0.04 | 90 | 1012.8 | |
| 20260502113019 | 48 | 23 | 1.0 | 2.0 | 0.04 | 0.04 | 0.04 | 90 | 1012.7 |
| 20260502112038 | 48 | 0.0 | 0.0 | 0.03 | 0.03 | 0.03 | 90 | 1012.9 | |
| 20260502111019 | 48 | 0.0 | 0.0 | 0.02 | 0.02 | 0.02 | 89 | 1012.8 | |
| 20260502110018 | 48 | 0.0 | 0.0 | 0.02 | 0.02 | 0.02 | 89 | 1012.5 | |
| 20260502105018 | 48 | 0.0 | 0.0 | 0.01 | 0.01 | 0.01 | 89 | 1012.1 | |
| 20260502104018 | 48 | 0.0 | 0.0 | 0.01 | 0.01 | 0.01 | 88 | 1012.2 | |
| 20260502103038 | 48 | 0.0 | 0.0 | 0.00 | 0.00 | 0.00 | 88 | 1012.0 | |
| 20260502102018 | 48 | 0.0 | 0.0 | 0.00 | 0.00 | 0.00 | 87 | 1012.0 | |
| 20260502101038 | 48 | 0.0 | 0.0 | 0.00 | 0.00 | 0.00 | 86 | 1011.9 | |
| 20260502091019 | 49 | 0.0 | 0.0 | 0.00 | 0.00 | 0.00 | 80 | 1011.7 | |
| 20260502071018 | 50 | 0.0 | 0.0 | 0.00 | 0.00 | 0.00 | 72 | 1011.8 | |
| 20260502070019 | 49 | 0.0 | 2.0 | 0.00 | 0.00 | 0.00 | 71 | 1011.9 | |
| 20260502065018 | 49 | 293 | 1.0 | 2.0 | 0.00 | 0.00 | 0.00 | 72 | 1012.1 |
| 20260502064018 | 48 | 248 | 1.0 | 4.0 | 0.00 | 0.00 | 0.00 | 72 | 1012.4 |
| 20260502063017 | 48 | 0.0 | 2.0 | 0.00 | 0.00 | 0.00 | 72 | 1012.3 | |
| 20260502062018 | 48 | 0.0 | 0.0 | 0.00 | 0.00 | 0.00 | 72 | 1012.1 | |
| 20260502061018 | 48 | 0.0 | 0.0 | 0.00 | 0.00 | 0.00 | 72 | 1012.0 | |
| 20260502060017 | 48 | 0.0 | 0.0 | 0.00 | 0.00 | 0.00 | 72 | 1011.8 | |
| 20260502055018 | 48 | 0.0 | 0.0 | 0.00 | 0.00 | 0.00 | 71 | 1011.9 | |
| 20260502054018 | 48 | 0.0 | 0.0 | 0.00 | 0.00 | 0.00 | 72 | 1011.9 | |
| 20260502053018 | 47 | 0.0 | 0.0 | 0.00 | 0.00 | 0.00 | 71 | 1012.1 | |
| 20260502052017 | 47 | 0.0 | 0.0 | 0.00 | 0.00 | 0.00 | 70 | 1012.1 | |
| 20260502051017 | 47 | 0.0 | 0.0 | 0.00 | 0.00 | 0.00 | 70 | 1012.1 | |
| 20260502050018 | 48 | 0.0 | 0.0 | 0.00 | 0.00 | 0.00 | 70 | 1012.0 | |
| 20260502045017 | 48 | 0.0 | 0.0 | 0.00 | 0.00 | 0.00 | 68 | 1012.1 | |
| 20260502044017 | 48 | 0.0 | 0.0 | 0.00 | 0.00 | 0.00 | 68 | 1012.0 | |
| 20260502043017 | 47 | 0.0 | 0.0 | 0.00 | 0.00 | 0.00 | 67 | 1012.3 | |
| 20260502042100 | 47 | 0.0 | 0.0 | 0.00 | 0.00 | 0.00 | 68 | 1012.4 | |
| 20260502041019 | 47 | 0.0 | 0.0 | 0.00 | 0.00 | 0.00 | 68 | 1012.3 | |
| 20260502040020 | 48 | 0.0 | 0.0 | 0.00 | 0.00 | 0.00 | 69 | 1012.4 | |
| 20260502035018 | 48 | 0.0 | 0.0 | 0.00 | 0.00 | 0.00 | 67 | 1012.4 | |
| 20260502034038 | 48 | 0.0 | 0.0 | 0.00 | 0.00 | 0.00 | 68 | 1012.3 | |
| 20260502033018 | 48 | 0.0 | 0.0 | 0.00 | 0.00 | 0.00 | 71 | 1012.4 | |
| 20260502032018 | 47 | 0.0 | 0.0 | 0.00 | 0.00 | 0.00 | 71 | 1012.2 | |
| 20260502031018 | 47 | 0.0 | 0.0 | 0.00 | 0.00 | 0.00 | 71 | 1011.9 | |
| 20260502030018 | 47 | 0.0 | 0.0 | 0.00 | 0.00 | 0.00 | 71 | 1011.9 | |
| 20260502025018 | 47 | 0.0 | 0.0 | 0.00 | 0.00 | 0.00 | 70 | 1011.9 | |
| 20260502024038 | 46 | 0.0 | 1.0 | 0.00 | 0.00 | 0.00 | 69 | 1012.1 | |
| 20260502023018 | 46 | 0.0 | 1.0 | 0.00 | 0.00 | 0.00 | 69 | 1012.1 | |
| 20260502022018 | 46 | 0.0 | 0.0 | 0.00 | 0.00 | 0.00 | 69 | 1012.0 | |
| 20260502021018 | 46 | 0.0 | 0.0 | 0.00 | 0.00 | 0.00 | 68 | 1012.0 | |
| 20260502020018 | 46 | 0.0 | 0.0 | 0.00 | 0.01 | 0.00 | 68 | 1012.0 | |
| 20260502015038 | 47 | 0.0 | 0.0 | 0.00 | 0.01 | 0.00 | 67 | 1012.0 | |
| 20260502014017 | 47 | 0.0 | 0.0 | 0.00 | 0.01 | 0.00 | 67 | 1011.9 | |
| 20260502013018 | 47 | 0.0 | 0.0 | 0.00 | 0.01 | 0.00 | 67 | 1011.9 | |
| 20260502012018 | 48 | 0.0 | 0.0 | 0.00 | 0.01 | 0.00 | 66 | 1011.9 | |
| 20260502011018 | 48 | 0.0 | 0.0 | 0.00 | 0.01 | 0.00 | 64 | 1011.7 | |
| 20260502010017 | 49 | 0.0 | 0.0 | 0.00 | 0.01 | 0.00 | 63 | 1011.7 |